Regional Weather Roundup
Issued by NWS

Home | Current Version | Previous Version | Graphics & Text | Print | Product List | Glossary On
Versions: 1 2 3 4 5 6 7 8 9 10 11 12 13 14 15 16 17 18 19 20 21 22 23 24 25 26 27 28 29 30 31 32 33 34 35 36 37 38 39 40 41 42 43 44 45 46 47 48 49 50
000
ASUS43 KDTX 170710
RWRMI
MICHIGAN HOURLY REGIONAL WEATHER ROUNDUP
NATIONAL WEATHER SERVICE DETROIT/PONTIAC MI
300 AM EDT WED SEP 17 2014

NOTE: "FAIR" INDICATES FEW OR NO CLOUDS BELOW 12,000 FEET WITH NO
SIGNIFICANT WEATHER AND/OR OBSTRUCTION TO VISIBILITY.

MIZ047>049-052>055-059>063-066>070-074>076-081>083-170800-
SOUTHEAST LOWER MICHIGAN

CITY           SKY/WX    TMP DP  RH WIND       PRES   REMARKS
ADRIAN         CLEAR     45  43  93 CALM      30.09S
ALMA           CLEAR     40  39  97 CALM      30.07S
ANN ARBOR      FOG       39  36  89 CALM      30.07S VSB 3/4
BAD AXE        CLEAR     40  40 100 CALM      30.05F
CARO             N/A     40  39  97 CALM      30.06S FOG
DETROIT CITY   CLEAR     52  44  74 CALM      30.08S
DETROIT        PTCLDY    50  45  83 CALM      30.08S
FLINT          CLEAR     42  39  89 CALM      30.08S
GROSSE ILE     CLEAR     48  45  87 CALM      30.06F
HILLSDALE      FOG       39  39 100 CALM      30.08S VSB 1/4
HOWELL         CLEAR     42  41  96 CALM      30.07F

CITY           SKY/WX    TMP DP  RH WIND       PRES   REMARKS
JACKSON        CLEAR     41  38  89 CALM      30.08S
LAMBERTVILLE   CLEAR     45  43  93 CALM      30.08F FOG
LANSING        CLEAR     44  41  89 CALM      30.08F
LAPEER         FAIR      40  40  97 CALM      30.07S
MASON          CLEAR     42  41  97 CALM      30.08S
MONROE         CLEAR     46  45  93 CALM      30.06F
MT. CLEMENS    MOCLDY    49  44  81 CALM      30.06S
PONTIAC        MOCLDY    48  43  82 CALM      30.07S
PORT HOPE        N/A     49  43  80 SW5       30.02F
PORT HURON       N/A     41  41 100 CALM      30.07S FOG
TRI CITIES     CLEAR     45  41  86 SW3       30.06F
TROY           PTCLDY    51  43  72 CALM      30.08F
SAGINAW HB     CLEAR     43  43 100 SW3       30.05F
$$
MIZ043>046-050>051-056>058-064>065-071>073-077>080-170800-
SOUTHWEST LOWER MICHIGAN

CITY           SKY/WX    TMP DP  RH WIND       PRES   REMARKS
BATTLE CREEK   CLEAR     42  38  85 CALM      30.08F
BENTON HARBOR  CLEAR     40  40 100 CALM      30.07F
BIG RAPIDS     CLEAR     39  39 100 CALM      30.05F
COLDWATER      CLEAR     43  42  97 CALM      30.08F FOG
FREMONT        FAIR      40  39  98 CALM      30.06F
HOLLAND        CLEAR     43  41  93 SE3       30.08F
GRAND RAPIDS   CLEAR     42  40  92 SE5       30.08S
IONIA          FAIR      43  41  93 W3        30.07S
KALAMAZOO      CLEAR     41  39  93 CALM      30.08F
LUDINGTON      CLEAR     40  40  97 E3        30.05S
MARSHALL       FOG       37  37  99 CALM      30.08F VSB 3/4
MOUNT PLEASANT CLEAR     42  41  97 CALM      30.06R
MUSKEGON       CLEAR     44  40  85 CALM      30.07F
SOUTH HAVEN    CLEAR     42  42  98 CALM      30.07F
$$
MIZ016>042-170800-
NORTHERN LOWER MICHIGAN

CITY           SKY/WX    TMP DP  RH WIND       PRES   REMARKS
ALPENA         PTCLDY    48  42  80 SW6       30.00F
BEAVER ISLAND  CLOUDY    50  49  98 CALM      29.98F
BELLAIRE       CLEAR     44  42  93 CALM      30.02S
CADILLAC       CLEAR     41  40  98 SW3       30.04S
CHARLEVOIX     MOCLDY    56  51  85 SW6       30.02S
FRANKFORT      CLEAR     59  48  68 CALM      30.02S
GAYLORD        CLEAR     45  42  89 SW5       30.01F
GRAYLING       CLEAR     44  41  89 W5        30.03F
HARBOR SPRINGS CLEAR     54  48  82 S6        29.99F
HOUGHTON LAKE  CLEAR     48  42  80 SW6       30.04S
MANISTEE       CLEAR     41  37  87 E3        30.05S
OSCODA         CLOUDY    51  42  71 W6        30.01F
PELLSTON       CLEAR     53  49  86 SW5       29.99F
ROGERS CITY    CLEAR     48  45  87 SW8       30.00S
TRAVERSE CITY  PTCLDY    51  45  79 VRB3      30.01S
$$
MIZ007>008-015-170800-
EASTERN UPPER MICHIGAN

CITY           SKY/WX    TMP DP  RH WIND       PRES   REMARKS
KINROSS        PTCLDY    46  46 100 CALM      29.98S
MACKINAC ISLAN PTCLDY    48  47  96 NE5       29.98S
NEWBERRY       CLEAR     44  43  97 CALM      29.98S
S. S. MARIE    CLEAR     46  43  89 CALM      29.97F
MUNISING         N/A     45  42  89 S6        29.97F
$$
MIZ004>006-011>014-085-170800-
CENTRAL UPPER MICHIGAN

CITY           SKY/WX    TMP DP  RH WIND       PRES   REMARKS
MANISTIQUE     CLEAR     45  43  95 CALM      29.98S
ESCANABA       CLOUDY    45  43  93 W3        29.99S
MENOMINEE      CLEAR     48  43  81 W3        30.00S
SAWYER-GWINN   MOCLDY    44  42  91 CALM      29.97F
$$
MIZ001>003-009>011-084-170800-
WESTERN UPPER MICHIGAN

CITY           SKY/WX    TMP DP  RH WIND       PRES   REMARKS
IRON MOUNTAIN  CLOUDY    49  42  77 CALM      29.98F
HOUGHTON       MOCLDY    47  44  90 E8        29.95F
COPPER HARBOR    N/A     46  40  79 S3        29.95F
IRONWOOD       CLOUDY    54  43  66 SW8       29.94F
$$

ABBREVIATIONS USED IN REMARKS
   TC - TEMPERATURE IN CELSIUS
  WCI - WIND CHILL INDEX
   HX - HEAT INDEX
  VSB - VISIBILITY




USA.gov is the U.S. government's official web portal to all federal, state and local government web resources and services.